When you browse on this site, cookies collect data to enhance your experience and personalize the content and advertising you see.
Visit our Privacy Policy to learn more. By continuing to use the site, you agree to this use of cookies and data.
EN

Hourly Weather Perm

Today, 8 July, Wednesday

Time Temperature Precipitation Wind Pressure Humidity
00:00 +20°C° 0 mm 0 mps 751 mmHg 86%
01:00 +19°C° 0 mm 0 mps 751 mmHg 89%
02:00 +19°C° 0 mm 0 mps 752 mmHg 90%
03:00 +19°C° 0 mm 0 mps 752 mmHg 91%
04:00 +20°C° 0 mm 1 mps 752 mmHg 92%
05:00 +22°C° 0 mm 1 mps 752 mmHg 86%
06:00 +24°C° 0 mm 1 mps 753 mmHg 79%
07:00 +26°C° 0 mm 1 mps 753 mmHg 73%
08:00 +28°C° 0 mm 1 mps 753 mmHg 67%
09:00 +29°C° 0 mm 1 mps 753 mmHg 61%
10:00 +31°C° 0 mm 1 mps 753 mmHg 55%
11:00 +31°C° 0 mm 2 mps 753 mmHg 52%
12:00 +32°C° 0 mm 2 mps 753 mmHg 50%
13:00 +34°C° 0 mm 2 mps 752 mmHg 47%
14:00 +34°C° 0 mm 2 mps 752 mmHg 48%
15:00 +34°C° 0 mm 2 mps 752 mmHg 49%
16:00 +34°C° 0 mm 2 mps 752 mmHg 50%
17:00 +32°C° 0 mm 2 mps 752 mmHg 56%
18:00 +31°C° 0 mm 2 mps 752 mmHg 62%
19:00 +30°C° 0 mm 2 mps 752 mmHg 68%
20:00 +28°C° 0 mm 1 mps 752 mmHg 74%
21:00 +26°C° 0 mm 1 mps 752 mmHg 81%
22:00 +24°C° 0 mm 1 mps 752 mmHg 87%
23:00 +24°C° 0 mm 1 mps 752 mmHg 88%

Tomorrow, 9 July, Thursday

Time Temperature Precipitation Wind Pressure Humidity
00:00 +23°C° 0 mm 1 mps 752 mmHg 90%
01:00 +23°C° 0 mm 1 mps 752 mmHg 92%
02:00 +22°C° 0 mm 1 mps 753 mmHg 93%
03:00 +22°C° 0 mm 1 mps 753 mmHg 94%
04:00 +22°C° 0 mm 1 mps 753 mmHg 95%
05:00 +23°C° 0 mm 1 mps 753 mmHg 89%
06:00 +25°C° 0 mm 1 mps 753 mmHg 82%
07:00 +27°C° 0 mm 1 mps 753 mmHg 76%
08:00 +28°C° 0 mm 1 mps 753 mmHg 69%
09:00 +30°C° 0 mm 1 mps 753 mmHg 63%
10:00 +31°C° 0 mm 2 mps 752 mmHg 56%
11:00 +32°C° 0 mm 2 mps 752 mmHg 52%
12:00 +34°C° 0 mm 2 mps 752 mmHg 48%
13:00 +34°C° 0 mm 2 mps 752 mmHg 44%
14:00 +34°C° 0 mm 2 mps 751 mmHg 44%
15:00 +34°C° 0 mm 2 mps 751 mmHg 44%
16:00 +34°C° 0 mm 2 mps 751 mmHg 44%
17:00 +32°C° 0 mm 1 mps 751 mmHg 51%
18:00 +31°C° 0 mm 1 mps 751 mmHg 59%
19:00 +30°C° 0 mm 1 mps 750 mmHg 66%
20:00 +28°C° 0 mm 1 mps 750 mmHg 72%
21:00 +27°C° 0 mm 1 mps 750 mmHg 78%
22:00 +25°C° 0 mm 1 mps 750 mmHg 84%
23:00 +24°C° 0 mm 1 mps 750 mmHg 87%

Day after tomorrow, 10 July, Friday

Time Temperature Precipitation Wind Pressure Humidity
00:00 +24°C° 0 mm 1 mps 750 mmHg 91%
01:00 +23°C° 0 mm 1 mps 750 mmHg 94%
02:00 +23°C° 0 mm 1 mps 750 mmHg 95%
03:00 +20°C° 0 mm 0 mps 751 mmHg 95%
04:00 +20°C° 0 mm 0 mps 751 mmHg 95%
05:00 +24°C° 0 mm 1 mps 751 mmHg 89%
06:00 +25°C° 0 mm 1 mps 750 mmHg 84%
07:00 +27°C° 0 mm 1 mps 750 mmHg 78%
08:00 +28°C° 0 mm 1 mps 750 mmHg 71%
09:00 +29°C° 0 mm 2 mps 750 mmHg 64%
10:00 +31°C° 0 mm 2 mps 750 mmHg 56%
11:00 +31°C° 0 mm 2 mps 750 mmHg 53%
12:00 +32°C° 0 mm 2 mps 750 mmHg 49%
13:00 +34°C° 0 mm 2 mps 749 mmHg 45%
14:00 +34°C° 0 mm 2 mps 749 mmHg 45%
15:00 +34°C° 0 mm 3 mps 749 mmHg 45%
16:00 +34°C° 0 mm 3 mps 749 mmHg 45%
17:00 +32°C° 0 mm 2 mps 749 mmHg 53%
18:00 +31°C° 0 mm 2 mps 749 mmHg 60%
19:00 +29°C° 0 mm 2 mps 748 mmHg 68%
20:00 +27°C° 0.1 mm 2 mps 748 mmHg 74%
21:00 +26°C° 0.1 mm 2 mps 748 mmHg 81%
22:00 +24°C° 0.1 mm 1 mps 749 mmHg 87%
23:00 +23°C° 0 mm 1 mps 748 mmHg 89%

11 July, Saturday

Time Temperature Precipitation Wind Pressure Humidity
00:00 +22°C° 0 mm 1 mps 748 mmHg 91%
01:00 +22°C° 0 mm 1 mps 748 mmHg 92%
02:00 +22°C° 0 mm 1 mps 748 mmHg 93%
03:00 +21°C° 0 mm 1 mps 748 mmHg 94%
04:00 +21°C° 0 mm 1 mps 748 mmHg 95%
05:00 +20°C° 0.9 mm 2 mps 748 mmHg 95%
06:00 +21°C° 0.9 mm 2 mps 749 mmHg 95%
07:00 +21°C° 0.9 mm 3 mps 749 mmHg 95%
08:00 +21°C° 1.9 mm 3 mps 749 mmHg 95%
09:00 +21°C° 1.9 mm 2 mps 749 mmHg 95%
10:00 +20°C° 1.9 mm 2 mps 749 mmHg 95%
11:00 +21°C° 0.2 mm 2 mps 749 mmHg 90%
12:00 +23°C° 0.2 mm 2 mps 749 mmHg 85%
13:00 +24°C° 0.2 mm 3 mps 750 mmHg 80%
14:00 +25°C° 0.3 mm 3 mps 750 mmHg 74%
15:00 +26°C° 0.3 mm 3 mps 750 mmHg 68%
16:00 +26°C° 0.3 mm 3 mps 750 mmHg 62%
17:00 +26°C° 0 mm 3 mps 750 mmHg 63%
18:00 +25°C° 0 mm 2 mps 750 mmHg 65%
19:00 +25°C° 0 mm 2 mps 751 mmHg 66%
20:00 +23°C° 0 mm 2 mps 751 mmHg 69%
21:00 +20°C° 0 mm 2 mps 751 mmHg 71%
22:00 +18°C° 0 mm 2 mps 751 mmHg 74%
23:00 +17°C° 0 mm 2 mps 752 mmHg 74%

12 July, Sunday

Time Temperature Precipitation Wind Pressure Humidity
00:00 +17°C° 0 mm 2 mps 752 mmHg 74%
01:00 +16°C° 0 mm 2 mps 752 mmHg 74%
02:00 +16°C° 0 mm 2 mps 753 mmHg 76%
03:00 +15°C° 0 mm 2 mps 753 mmHg 79%
04:00 +14°C° 0 mm 2 mps 753 mmHg 81%
05:00 +15°C° 0 mm 2 mps 753 mmHg 76%
06:00 +17°C° 0 mm 2 mps 754 mmHg 71%
07:00 +18°C° 0 mm 2 mps 754 mmHg 66%
08:00 +20°C° 0 mm 2 mps 754 mmHg 58%
09:00 +22°C° 0 mm 3 mps 754 mmHg 51%
10:00 +24°C° 0 mm 3 mps 754 mmHg 44%
11:00 +25°C° 0 mm 3 mps 754 mmHg 42%
12:00 +26°C° 0 mm 3 mps 754 mmHg 40%
13:00 +26°C° 0 mm 3 mps 754 mmHg 39%
14:00 +27°C° 0 mm 3 mps 754 mmHg 39%
15:00 +27°C° 0 mm 3 mps 754 mmHg 39%
16:00 +27°C° 0 mm 3 mps 754 mmHg 39%
17:00 +26°C° 0 mm 2 mps 754 mmHg 46%
18:00 +25°C° 0 mm 2 mps 753 mmHg 53%
19:00 +25°C° 0 mm 1 mps 753 mmHg 60%
20:00 +23°C° 0 mm 1 mps 753 mmHg 65%
21:00 +21°C° 0 mm 1 mps 754 mmHg 70%
22:00 +19°C° 0 mm 1 mps 754 mmHg 74%
23:00 +19°C° 0 mm 1 mps 754 mmHg 76%

13 July, Monday

Time Temperature Precipitation Wind Pressure Humidity
00:00 +18°C° 0 mm 1 mps 754 mmHg 78%
01:00 +18°C° 0 mm 1 mps 754 mmHg 80%
02:00 +16°C° 0 mm 1 mps 754 mmHg 83%
03:00 +16°C° 0 mm 1 mps 754 mmHg 86%
04:00 +16°C° 0 mm 1 mps 754 mmHg 89%
05:00 +19°C° 0 mm 1 mps 754 mmHg 83%
06:00 +21°C° 0 mm 1 mps 754 mmHg 77%
07:00 +23°C° 0 mm 1 mps 754 mmHg 71%
08:00 +25°C° 0 mm 1 mps 754 mmHg 65%
09:00 +26°C° 0 mm 1 mps 754 mmHg 59%
10:00 +28°C° 0 mm 1 mps 754 mmHg 53%
11:00 +29°C° 0 mm 1 mps 753 mmHg 50%
12:00 +30°C° 0 mm 1 mps 753 mmHg 47%
13:00 +31°C° 0 mm 1 mps 753 mmHg 44%
14:00 +31°C° 0 mm 1 mps 753 mmHg 44%
15:00 +31°C° 0 mm 1 mps 753 mmHg 44%
16:00 +31°C° 0 mm 1 mps 753 mmHg 44%
17:00 +30°C° 0 mm 1 mps 752 mmHg 50%
18:00 +29°C° 0 mm 1 mps 752 mmHg 57%
19:00 +28°C° 0 mm 1 mps 752 mmHg 64%
20:00 +24°C° 0 mm 0 mps 752 mmHg 69%
21:00 +22°C° 0 mm 0 mps 752 mmHg 75%
22:00 +20°C° 0 mm 0 mps 752 mmHg 80%
23:00 +19°C° 0 mm 0 mps 752 mmHg 82%
Show more